Location: Chervonnoye
(48.6000°N, 34.4000°E)
Time: 11:20:37
(UTC+00:00)

deb Kosmos-2237 - Pass Details

Date: 16 June 2021
Orbit: 850 x 1045 km, 71.0° (Epoch: 25 July)

Event Time Altitude Azimuth Distance (km) Brightness Sun altitude
Rises 19:30:36 0° 205° (SSW) 3,529 ? -12.2°
Reaches altitude 10° 19:33:02 10° 206° (SSW) 2,617 ? -12.4°
Maximum altitude 19:39:08 89° 112° (ESE) 967 ? -12.9°
Drops below altitude 10° 19:45:36 10° 28° (NNE) 2,772 ? -13.4°
Sets 19:48:14 0° 29° (NNE) 3,750 ? -13.6°
